#datetime,building,power
2022-09-01T00:00:00,pst,14.08
2022-09-01T00:01:00,pst,15.03
2022-09-01T00:02:00,pst,14.08
2022-09-01T00:03:00,pst,14.33
2022-09-01T00:04:00,pst,14.42
2022-09-01T00:05:00,pst,14.05
2022-09-01T00:06:00,pst,14.18
2022-09-01T00:07:00,pst,13.89
2022-09-01T00:08:00,pst,14.19
2022-09-01T00:09:00,pst,14.18
2022-09-01T00:10:00,pst,13.86
2022-09-01T00:11:00,pst,14.08
2022-09-01T00:12:00,pst,13.28
2022-09-01T00:13:00,pst,12.98
2022-09-01T00:14:00,pst,13.27
2022-09-01T00:15:00,pst,13.22
2022-09-01T00:16:00,pst,13.04
2022-09-01T00:17:00,pst,13.33
2022-09-01T00:18:00,pst,13.02
2022-09-01T00:19:00,pst,13.00
2022-09-01T00:20:00,pst,12.99
2022-09-01T00:21:00,pst,12.66
2022-09-01T00:22:00,pst,12.95
2022-09-01T00:23:00,pst,12.94
2022-09-01T00:24:00,pst,12.57
2022-09-01T00:25:00,pst,12.89
2022-09-01T00:26:00,pst,12.72
2022-09-01T00:27:00,pst,12.42
2022-09-01T00:28:00,pst,12.73
2022-09-01T00:29:00,pst,12.71
2022-09-01T00:30:00,pst,12.45
2022-09-01T00:31:00,pst,12.76
2022-09-01T00:32:00,pst,12.30
2022-09-01T00:33:00,pst,12.54
2022-09-01T00:34:00,pst,12.61
2022-09-01T00:35:00,pst,12.31
2022-09-01T00:36:00,pst,12.58
2022-09-01T00:37:00,pst,12.58
2022-09-01T00:38:00,pst,12.26
2022-09-01T00:39:00,pst,12.56
2022-09-01T00:40:00,pst,12.31
2022-09-01T00:41:00,pst,12.31
2022-09-01T00:42:00,pst,12.61
2022-09-01T00:43:00,pst,12.31
2022-09-01T00:44:00,pst,12.58
2022-09-01T00:45:00,pst,12.59
2022-09-01T00:46:00,pst,12.26
2022-09-01T00:47:00,pst,12.59
2022-09-01T00:48:00,pst,12.76
2022-09-01T00:49:00,pst,12.43
2022-09-01T00:50:00,pst,12.73
2022-09-01T00:51:00,pst,12.59
2022-09-01T00:52:00,pst,12.56
2022-09-01T00:53:00,pst,12.87
2022-09-01T00:54:00,pst,12.57
2022-09-01T00:55:00,pst,12.87
2022-09-01T00:56:00,pst,12.95
2022-09-01T00:57:00,pst,12.60
2022-09-01T00:58:00,pst,12.92
2022-09-01T00:59:00,pst,12.60
2022-09-01T01:00:00,pst,12.63
2022-09-01T01:01:00,pst,12.95
2022-09-01T01:02:00,pst,12.59
2022-09-01T01:03:00,pst,12.62
2022-09-01T01:04:00,pst,12.67
2022-09-01T01:05:00,pst,12.37
2022-09-01T01:06:00,pst,12.68
2022-09-01T01:07:00,pst,12.37
2022-09-01T01:08:00,pst,12.67
2022-09-01T01:09:00,pst,12.68
2022-09-01T01:10:00,pst,12.36
2022-09-01T01:11:00,pst,12.68
2022-09-01T01:12:00,pst,12.35
2022-09-01T01:13:00,pst,12.36
2022-09-01T01:14:00,pst,12.65
2022-09-01T01:15:00,pst,12.64
2022-09-01T01:16:00,pst,12.33
2022-09-01T01:17:00,pst,12.64
2022-09-01T01:18:00,pst,12.64
2022-09-01T01:19:00,pst,12.73
2022-09-01T01:20:00,pst,12.79
2022-09-01T01:21:00,pst,12.79
2022-09-01T01:22:00,pst,12.48
2022-09-01T01:23:00,pst,12.79
2022-09-01T01:24:00,pst,12.56
2022-09-01T01:25:00,pst,12.48
2022-09-01T01:26:00,pst,12.79
2022-09-01T01:27:00,pst,12.74
2022-09-01T01:28:00,pst,12.47
2022-09-01T01:29:00,pst,12.80
2022-09-01T01:30:00,pst,12.82
2022-09-01T01:31:00,pst,12.51
2022-09-01T01:32:00,pst,12.82
2022-09-01T01:33:00,pst,12.87
2022-09-01T01:34:00,pst,12.52
2022-09-01T01:35:00,pst,12.70
2022-09-01T01:36:00,pst,12.37
2022-09-01T01:37:00,pst,12.34
2022-09-01T01:38:00,pst,12.65
2022-09-01T01:39:00,pst,12.33
2022-09-01T01:40:00,pst,12.31
2022-09-01T01:41:00,pst,12.63
2022-09-01T01:42:00,pst,12.50
2022-09-01T01:43:00,pst,12.45
2022-09-01T01:44:00,pst,12.72
2022-09-01T01:45:00,pst,12.73
2022-09-01T01:46:00,pst,12.40
2022-09-01T01:47:00,pst,12.71
2022-09-01T01:48:00,pst,12.71
2022-09-01T01:49:00,pst,21.43
2022-09-01T01:50:00,pst,21.30
2022-09-01T01:51:00,pst,21.62
2022-09-01T01:52:00,pst,21.16
2022-09-01T01:53:00,pst,21.05
2022-09-01T01:54:00,pst,12.72
2022-09-01T01:55:00,pst,12.42
2022-09-01T01:56:00,pst,12.36
2022-09-01T01:57:00,pst,12.68
2022-09-01T01:58:00,pst,12.36
2022-09-01T01:59:00,pst,12.58
2022-09-01T02:00:00,pst,12.68
2022-09-01T02:01:00,pst,12.40
2022-09-01T02:02:00,pst,12.75
2022-09-01T02:03:00,pst,12.70
2022-09-01T02:04:00,pst,12.38
2022-09-01T02:05:00,pst,12.39
2022-09-01T02:06:00,pst,12.55
2022-09-01T02:07:00,pst,12.24
2022-09-01T02:08:00,pst,12.24
2022-09-01T02:09:00,pst,12.54
2022-09-01T02:10:00,pst,12.24
2022-09-01T02:11:00,pst,12.23
2022-09-01T02:12:00,pst,12.55
2022-09-01T02:13:00,pst,12.55
2022-09-01T02:14:00,pst,12.20
2022-09-01T02:15:00,pst,12.50
2022-09-01T02:16:00,pst,12.52
2022-09-01T02:17:00,pst,12.21
2022-09-01T02:18:00,pst,12.52
2022-09-01T02:19:00,pst,12.51
2022-09-01T02:20:00,pst,12.20
2022-09-01T02:21:00,pst,12.52
2022-09-01T02:22:00,pst,12.51
2022-09-01T02:23:00,pst,13.56
2022-09-01T02:24:00,pst,13.55
2022-09-01T02:25:00,pst,13.92
2022-09-01T02:26:00,pst,13.91
2022-09-01T02:27:00,pst,13.66
2022-09-01T02:28:00,pst,13.98
2022-09-01T02:29:00,pst,13.95
2022-09-01T02:30:00,pst,13.65
2022-09-01T02:31:00,pst,14.10
2022-09-01T02:32:00,pst,13.98
2022-09-01T02:33:00,pst,13.68
2022-09-01T02:34:00,pst,13.81
2022-09-01T02:35:00,pst,14.09
2022-09-01T02:36:00,pst,13.76
2022-09-01T02:37:00,pst,13.76
2022-09-01T02:38:00,pst,13.90
2022-09-01T02:39:00,pst,13.91
2022-09-01T02:40:00,pst,13.60
2022-09-01T02:41:00,pst,13.59
2022-09-01T02:42:00,pst,13.60
2022-09-01T02:43:00,pst,13.60
2022-09-01T02:44:00,pst,13.89
2022-09-01T02:45:00,pst,13.75
2022-09-01T02:46:00,pst,13.38
2022-09-01T02:47:00,pst,13.38
2022-09-01T02:48:00,pst,13.38
2022-09-01T02:49:00,pst,13.40
2022-09-01T02:50:00,pst,13.38
2022-09-01T02:51:00,pst,13.40
2022-09-01T02:52:00,pst,13.39
2022-09-01T02:53:00,pst,13.39
2022-09-01T02:54:00,pst,13.37
2022-09-01T02:55:00,pst,13.57
2022-09-01T02:56:00,pst,13.55
2022-09-01T02:57:00,pst,13.54
2022-09-01T02:58:00,pst,13.54
2022-09-01T02:59:00,pst,13.54
2022-09-01T03:00:00,pst,13.48
2022-09-01T03:01:00,pst,13.48
2022-09-01T03:02:00,pst,13.48
2022-09-01T03:03:00,pst,13.54
2022-09-01T03:04:00,pst,13.51
2022-09-01T03:05:00,pst,13.51
2022-09-01T03:06:00,pst,13.52
2022-09-01T03:07:00,pst,13.51
2022-09-01T03:08:00,pst,13.51
2022-09-01T03:09:00,pst,13.33
2022-09-01T03:10:00,pst,13.34
2022-09-01T03:11:00,pst,13.34
2022-09-01T03:12:00,pst,13.33
2022-09-01T03:13:00,pst,13.64
2022-09-01T03:14:00,pst,13.65
2022-09-01T03:15:00,pst,13.65
2022-09-01T03:16:00,pst,13.67
2022-09-01T03:17:00,pst,13.29
2022-09-01T03:18:00,pst,13.36
2022-09-01T03:19:00,pst,13.37
2022-09-01T03:20:00,pst,13.35
2022-09-01T03:21:00,pst,13.36
2022-09-01T03:22:00,pst,13.35
2022-09-01T03:23:00,pst,13.36
2022-09-01T03:24:00,pst,13.50
2022-09-01T03:25:00,pst,13.50
2022-09-01T03:26:00,pst,13.67
2022-09-01T03:27:00,pst,13.64
2022-09-01T03:28:00,pst,13.64
2022-09-01T03:29:00,pst,13.63
2022-09-01T03:30:00,pst,13.64
2022-09-01T03:31:00,pst,13.62
2022-09-01T03:32:00,pst,13.62
2022-09-01T03:33:00,pst,13.63
2022-09-01T03:34:00,pst,13.93
2022-09-01T03:35:00,pst,14.00
2022-09-01T03:36:00,pst,13.87
2022-09-01T03:37:00,pst,13.88
2022-09-01T03:38:00,pst,13.83
2022-09-01T03:39:00,pst,13.82
2022-09-01T03:40:00,pst,13.84
2022-09-01T03:41:00,pst,13.69
2022-09-01T03:42:00,pst,13.35
2022-09-01T03:43:00,pst,13.36
2022-09-01T03:44:00,pst,13.34
2022-09-01T03:45:00,pst,13.35
2022-09-01T03:46:00,pst,13.35
2022-09-01T03:47:00,pst,13.35
2022-09-01T03:48:00,pst,13.32
2022-09-01T03:49:00,pst,13.29
2022-09-01T03:50:00,pst,13.29
2022-09-01T03:51:00,pst,13.30
2022-09-01T03:52:00,pst,13.29
2022-09-01T03:53:00,pst,13.30
2022-09-01T03:54:00,pst,13.29
2022-09-01T03:55:00,pst,13.35
2022-09-01T03:56:00,pst,13.34
2022-09-01T03:57:00,pst,13.34
2022-09-01T03:58:00,pst,13.53
2022-09-01T03:59:00,pst,13.52
2022-09-01T04:00:00,pst,13.51
2022-09-01T04:01:00,pst,13.49
2022-09-01T04:02:00,pst,13.51
2022-09-01T04:03:00,pst,13.49
2022-09-01T04:04:00,pst,13.49
2022-09-01T04:05:00,pst,13.46
2022-09-01T04:06:00,pst,13.48
2022-09-01T04:07:00,pst,13.51
2022-09-01T04:08:00,pst,13.51
2022-09-01T04:09:00,pst,13.57
2022-09-01T04:10:00,pst,14.05
2022-09-01T04:11:00,pst,14.71
2022-09-01T04:12:00,pst,14.74
2022-09-01T04:13:00,pst,14.58
2022-09-01T04:14:00,pst,14.58
2022-09-01T04:15:00,pst,14.58
2022-09-01T04:16:00,pst,14.73
2022-09-01T04:17:00,pst,14.73
2022-09-01T04:18:00,pst,14.75
2022-09-01T04:19:00,pst,14.74
2022-09-01T04:20:00,pst,14.07
2022-09-01T04:21:00,pst,14.08
2022-09-01T04:22:00,pst,14.04
2022-09-01T04:23:00,pst,14.02
2022-09-01T04:24:00,pst,14.01
2022-09-01T04:25:00,pst,14.01
2022-09-01T04:26:00,pst,14.00
2022-09-01T04:27:00,pst,13.50
2022-09-01T04:28:00,pst,13.51
2022-09-01T04:29:00,pst,13.46
2022-09-01T04:30:00,pst,13.63
2022-09-01T04:31:00,pst,13.60
2022-09-01T04:32:00,pst,13.42
2022-09-01T04:33:00,pst,13.69
2022-09-01T04:34:00,pst,13.71
2022-09-01T04:35:00,pst,13.73
2022-09-01T04:36:00,pst,13.73
2022-09-01T04:37:00,pst,13.73
2022-09-01T04:38:00,pst,13.74
2022-09-01T04:39:00,pst,14.36
2022-09-01T04:40:00,pst,13.79
2022-09-01T04:41:00,pst,13.80
2022-09-01T04:42:00,pst,13.80
2022-09-01T04:43:00,pst,13.80
2022-09-01T04:44:00,pst,13.65
2022-09-01T04:45:00,pst,13.64
2022-09-01T04:46:00,pst,13.63
2022-09-01T04:47:00,pst,13.64
2022-09-01T04:48:00,pst,13.29
2022-09-01T04:49:00,pst,13.30
2022-09-01T04:50:00,pst,13.30
2022-09-01T04:51:00,pst,13.32
2022-09-01T04:52:00,pst,13.31
2022-09-01T04:53:00,pst,13.31
2022-09-01T04:54:00,pst,13.29
2022-09-01T04:55:00,pst,13.27
2022-09-01T04:56:00,pst,13.28
2022-09-01T04:57:00,pst,13.27
2022-09-01T04:58:00,pst,13.27
2022-09-01T04:59:00,pst,13.26
2022-09-01T05:00:00,pst,13.34
2022-09-01T05:01:00,pst,13.32
2022-09-01T05:02:00,pst,13.49
2022-09-01T05:03:00,pst,13.46
2022-09-01T05:04:00,pst,13.47
2022-09-01T05:05:00,pst,13.47
2022-09-01T05:06:00,pst,13.46
2022-09-01T05:07:00,pst,13.47
2022-09-01T05:08:00,pst,13.59
2022-09-01T05:09:00,pst,13.59
2022-09-01T05:10:00,pst,13.58
2022-09-01T05:11:00,pst,13.58
2022-09-01T05:12:00,pst,13.57
2022-09-01T05:13:00,pst,13.61
2022-09-01T05:14:00,pst,14.00
2022-09-01T05:15:00,pst,13.98
2022-09-01T05:16:00,pst,13.98
2022-09-01T05:17:00,pst,13.98
2022-09-01T05:18:00,pst,13.97
2022-09-01T05:19:00,pst,13.81
2022-09-01T05:20:00,pst,13.79
2022-09-01T05:21:00,pst,13.81
2022-09-01T05:22:00,pst,13.80
2022-09-01T05:23:00,pst,14.10
2022-09-01T05:24:00,pst,14.16
2022-09-01T05:25:00,pst,14.17
2022-09-01T05:26:00,pst,13.66
2022-09-01T05:27:00,pst,13.64
2022-09-01T05:28:00,pst,13.30
2022-09-01T05:29:00,pst,13.31
2022-09-01T05:30:00,pst,22.17
2022-09-01T05:31:00,pst,21.96
2022-09-01T05:32:00,pst,21.83
2022-09-01T05:33:00,pst,21.72
2022-09-01T05:34:00,pst,13.30
2022-09-01T05:35:00,pst,13.30
2022-09-01T05:36:00,pst,13.30
2022-09-01T05:37:00,pst,13.30
2022-09-01T05:38:00,pst,13.56
2022-09-01T05:39:00,pst,13.47
2022-09-01T05:40:00,pst,13.48
2022-09-01T05:41:00,pst,13.48
2022-09-01T05:42:00,pst,13.47
2022-09-01T05:43:00,pst,13.46
2022-09-01T05:44:00,pst,13.46
2022-09-01T05:45:00,pst,13.46
2022-09-01T05:46:00,pst,13.58
2022-09-01T05:47:00,pst,13.86
2022-09-01T05:48:00,pst,13.89
2022-09-01T05:49:00,pst,13.89
2022-09-01T05:50:00,pst,13.89
2022-09-01T05:51:00,pst,13.97
2022-09-01T05:52:00,pst,13.96
2022-09-01T05:53:00,pst,25.05
2022-09-01T05:54:00,pst,14.10
2022-09-01T05:55:00,pst,14.10
2022-09-01T05:56:00,pst,14.22
2022-09-01T05:57:00,pst,14.23
2022-09-01T05:58:00,pst,14.81
2022-09-01T05:59:00,pst,14.83
2022-09-01T06:00:00,pst,14.84
2022-09-01T06:01:00,pst,14.87
2022-09-01T06:02:00,pst,14.86
2022-09-01T06:03:00,pst,14.90
2022-09-01T06:04:00,pst,14.88
2022-09-01T06:05:00,pst,14.91
2022-09-01T06:06:00,pst,14.58
2022-09-01T06:07:00,pst,14.54
2022-09-01T06:08:00,pst,8.42
2022-09-01T06:09:00,pst,8.42
2022-09-01T06:10:00,pst,8.40
2022-09-01T06:11:00,pst,8.43
2022-09-01T06:12:00,pst,8.42
2022-09-01T06:13:00,pst,8.41
2022-09-01T06:14:00,pst,8.48
2022-09-01T06:15:00,pst,9.50
2022-09-01T06:16:00,pst,9.49
2022-09-01T06:17:00,pst,20.74
2022-09-01T06:18:00,pst,9.33
2022-09-01T06:19:00,pst,9.31
2022-09-01T06:20:00,pst,9.38
2022-09-01T06:21:00,pst,9.35
2022-09-01T06:22:00,pst,9.24
2022-09-01T06:23:00,pst,10.42
2022-09-01T06:24:00,pst,10.47
2022-09-01T06:25:00,pst,9.47
2022-09-01T06:26:00,pst,9.46
2022-09-01T06:27:00,pst,9.54
2022-09-01T06:28:00,pst,10.48
2022-09-01T06:29:00,pst,10.47
2022-09-01T06:30:00,pst,10.45
2022-09-01T06:31:00,pst,9.46
2022-09-01T06:32:00,pst,8.79
2022-09-01T06:33:00,pst,8.77
2022-09-01T06:34:00,pst,20.66
2022-09-01T06:35:00,pst,8.56
2022-09-01T06:36:00,pst,8.63
2022-09-01T06:37:00,pst,8.78
2022-09-01T06:38:00,pst,9.69
2022-09-01T06:39:00,pst,9.67
2022-09-01T06:40:00,pst,9.47
2022-09-01T06:41:00,pst,9.50
2022-09-01T06:42:00,pst,9.50
2022-09-01T06:43:00,pst,9.45
2022-09-01T06:44:00,pst,9.50
2022-09-01T06:45:00,pst,8.74
2022-09-01T06:46:00,pst,8.97
2022-09-01T06:47:00,pst,8.97
2022-09-01T06:48:00,pst,8.96
2022-09-01T06:49:00,pst,8.95
2022-09-01T06:50:00,pst,9.05
2022-09-01T06:51:00,pst,8.74
2022-09-01T06:52:00,pst,8.55
2022-09-01T06:53:00,pst,8.55
2022-09-01T06:54:00,pst,9.53
2022-09-01T06:55:00,pst,9.50
2022-09-01T06:56:00,pst,9.50
2022-09-01T06:57:00,pst,9.40
2022-09-01T06:58:00,pst,9.40
2022-09-01T06:59:00,pst,9.41
2022-09-01T07:00:00,pst,9.41
2022-09-01T07:01:00,pst,9.39
2022-09-01T07:02:00,pst,9.39
2022-09-01T07:03:00,pst,9.40
2022-09-01T07:04:00,pst,9.39
2022-09-01T07:05:00,pst,8.46
2022-09-01T07:06:00,pst,8.41
2022-09-01T07:07:00,pst,8.33
2022-09-01T07:08:00,pst,8.33
2022-09-01T07:09:00,pst,18.78
2022-09-01T07:10:00,pst,8.32
2022-09-01T07:11:00,pst,8.32
2022-09-01T07:12:00,pst,9.49
2022-09-01T07:13:00,pst,9.50
2022-09-01T07:14:00,pst,9.47
2022-09-01T07:15:00,pst,9.45
2022-09-01T07:16:00,pst,9.44
2022-09-01T07:17:00,pst,9.45
2022-09-01T07:18:00,pst,9.35
2022-09-01T07:19:00,pst,9.44
2022-09-01T07:20:00,pst,8.41
2022-09-01T07:21:00,pst,8.63
2022-09-01T07:22:00,pst,8.69
2022-09-01T07:23:00,pst,8.74
2022-09-01T07:24:00,pst,8.74
2022-09-01T07:25:00,pst,8.71
2022-09-01T07:26:00,pst,8.40
2022-09-01T07:27:00,pst,8.39
2022-09-01T07:28:00,pst,8.24
2022-09-01T07:29:00,pst,8.23
2022-09-01T07:30:00,pst,8.55
2022-09-01T07:31:00,pst,8.58
2022-09-01T07:32:00,pst,8.56
2022-09-01T07:33:00,pst,8.31
2022-09-01T07:34:00,pst,8.36
2022-09-01T07:35:00,pst,9.54
2022-09-01T07:36:00,pst,9.54
2022-09-01T07:37:00,pst,9.54
2022-09-01T07:38:00,pst,9.59
2022-09-01T07:39:00,pst,9.58
2022-09-01T07:40:00,pst,9.57
2022-09-01T07:41:00,pst,9.58
2022-09-01T07:42:00,pst,9.55
2022-09-01T07:43:00,pst,9.55
2022-09-01T07:44:00,pst,9.52
2022-09-01T07:45:00,pst,9.52
2022-09-01T07:46:00,pst,9.10
2022-09-01T07:47:00,pst,8.69
2022-09-01T07:48:00,pst,8.71
2022-09-01T07:49:00,pst,8.73
2022-09-01T07:50:00,pst,10.06
2022-09-01T07:51:00,pst,10.00
2022-09-01T07:52:00,pst,9.99
2022-09-01T07:53:00,pst,10.00
2022-09-01T07:54:00,pst,10.50
2022-09-01T07:55:00,pst,10.81
2022-09-01T07:56:00,pst,10.83
2022-09-01T07:57:00,pst,10.82
2022-09-01T07:58:00,pst,9.81
2022-09-01T07:59:00,pst,10.11
2022-09-01T08:00:00,pst,10.08
2022-09-01T08:01:00,pst,10.89
2022-09-01T08:02:00,pst,9.99
2022-09-01T08:03:00,pst,10.00
2022-09-01T08:04:00,pst,10.07
2022-09-01T08:05:00,pst,10.34
2022-09-01T08:06:00,pst,10.38
2022-09-01T08:07:00,pst,8.70
2022-09-01T08:08:00,pst,8.68
2022-09-01T08:09:00,pst,8.72
2022-09-01T08:10:00,pst,8.38
2022-09-01T08:11:00,pst,8.38
2022-09-01T08:12:00,pst,8.35
2022-09-01T08:13:00,pst,8.35
2022-09-01T08:14:00,pst,8.02
2022-09-01T08:15:00,pst,8.33
2022-09-01T08:16:00,pst,7.83
2022-09-01T08:17:00,pst,8.17
2022-09-01T08:18:00,pst,8.20
2022-09-01T08:19:00,pst,8.19
2022-09-01T08:20:00,pst,7.98
2022-09-01T08:21:00,pst,8.37
2022-09-01T08:22:00,pst,8.30
2022-09-01T08:23:00,pst,8.02
2022-09-01T08:24:00,pst,8.39
2022-09-01T08:25:00,pst,9.14
2022-09-01T08:26:00,pst,8.73
2022-09-01T08:27:00,pst,9.13
2022-09-01T08:28:00,pst,10.31
2022-09-01T08:29:00,pst,17.76
2022-09-01T08:30:00,pst,9.53
2022-09-01T08:31:00,pst,19.06
2022-09-01T08:32:00,pst,18.68
2022-09-01T08:33:00,pst,18.90
2022-09-01T08:34:00,pst,10.32
2022-09-01T08:35:00,pst,9.42
2022-09-01T08:36:00,pst,8.88
2022-09-01T08:37:00,pst,8.92
2022-09-01T08:38:00,pst,9.20
2022-09-01T08:39:00,pst,9.26
2022-09-01T08:40:00,pst,8.82
2022-09-01T08:41:00,pst,9.14
2022-09-01T08:42:00,pst,8.82
2022-09-01T08:43:00,pst,8.77
2022-09-01T08:44:00,pst,9.10
2022-09-01T08:45:00,pst,8.81
2022-09-01T08:46:00,pst,9.08
2022-09-01T08:47:00,pst,8.79
2022-09-01T08:48:00,pst,9.04
2022-09-01T08:49:00,pst,8.73
2022-09-01T08:50:00,pst,9.04
2022-09-01T08:51:00,pst,19.38
2022-09-01T08:52:00,pst,8.74
2022-09-01T08:53:00,pst,9.16
2022-09-01T08:54:00,pst,19.62
2022-09-01T08:55:00,pst,8.74
2022-09-01T08:56:00,pst,8.98
2022-09-01T08:57:00,pst,8.98
2022-09-01T08:58:00,pst,8.63
2022-09-01T08:59:00,pst,8.62
2022-09-01T09:00:00,pst,8.93
2022-09-01T09:01:00,pst,8.63
2022-09-01T09:02:00,pst,8.63
2022-09-01T09:03:00,pst,8.98
2022-09-01T09:04:00,pst,8.90
2022-09-01T09:05:00,pst,8.65
2022-09-01T09:06:00,pst,8.64
2022-09-01T09:07:00,pst,8.63
2022-09-01T09:08:00,pst,8.78
2022-09-01T09:09:00,pst,8.31
2022-09-01T09:10:00,pst,8.31
2022-09-01T09:11:00,pst,8.62
2022-09-01T09:12:00,pst,8.61
2022-09-01T09:13:00,pst,8.36
2022-09-01T09:14:00,pst,8.37
2022-09-01T09:15:00,pst,8.63
2022-09-01T09:16:00,pst,8.47
2022-09-01T09:17:00,pst,8.46
2022-09-01T09:18:00,pst,8.86
2022-09-01T09:19:00,pst,8.49
2022-09-01T09:20:00,pst,8.49
2022-09-01T09:21:00,pst,8.79
2022-09-01T09:22:00,pst,8.77
2022-09-01T09:23:00,pst,8.48
2022-09-01T09:24:00,pst,8.54
2022-09-01T09:25:00,pst,8.63
2022-09-01T09:26:00,pst,8.50
2022-09-01T09:27:00,pst,8.48
2022-09-01T09:28:00,pst,8.78
2022-09-01T09:29:00,pst,8.52
2022-09-01T09:30:00,pst,8.60
2022-09-01T09:31:00,pst,8.70
2022-09-01T09:32:00,pst,10.21
2022-09-01T09:33:00,pst,8.39
2022-09-01T09:34:00,pst,8.71
2022-09-01T09:35:00,pst,8.70
2022-09-01T09:36:00,pst,8.39
2022-09-01T09:37:00,pst,8.46
2022-09-01T09:38:00,pst,8.69
2022-09-01T09:39:00,pst,8.40
2022-09-01T09:40:00,pst,8.27
2022-09-01T09:41:00,pst,8.55
2022-09-01T09:42:00,pst,8.83
2022-09-01T09:43:00,pst,9.45
2022-09-01T09:44:00,pst,9.71
2022-09-01T09:45:00,pst,9.41
2022-09-01T09:46:00,pst,9.39
2022-09-01T09:47:00,pst,9.75
2022-09-01T09:48:00,pst,9.44
2022-09-01T09:49:00,pst,9.43
2022-09-01T09:50:00,pst,9.43
2022-09-01T09:51:00,pst,9.40
2022-09-01T09:52:00,pst,8.86
2022-09-01T09:53:00,pst,8.86
2022-09-01T09:54:00,pst,9.15
2022-09-01T09:55:00,pst,8.80
2022-09-01T09:56:00,pst,8.93
2022-09-01T09:57:00,pst,8.84
2022-09-01T09:58:00,pst,8.82
2022-09-01T09:59:00,pst,8.67
2022-09-01T10:00:00,pst,8.88
2022-09-01T10:01:00,pst,8.91
2022-09-01T10:02:00,pst,8.42
2022-09-01T10:03:00,pst,8.41
2022-09-01T10:04:00,pst,8.72
2022-09-01T10:05:00,pst,8.37
2022-09-01T10:06:00,pst,8.42
2022-09-01T10:07:00,pst,8.68
2022-09-01T10:08:00,pst,8.36
2022-09-01T10:09:00,pst,8.36
2022-09-01T10:10:00,pst,8.74
2022-09-01T10:11:00,pst,8.52
2022-09-01T10:12:00,pst,8.53
2022-09-01T10:13:00,pst,8.39
2022-09-01T10:14:00,pst,8.71
2022-09-01T10:15:00,pst,8.42
2022-09-01T10:16:00,pst,8.42
2022-09-01T10:17:00,pst,8.71
2022-09-01T10:18:00,pst,8.42
2022-09-01T10:19:00,pst,8.42
2022-09-01T10:20:00,pst,8.84
2022-09-01T10:21:00,pst,8.70
2022-09-01T10:22:00,pst,8.41
2022-09-01T10:23:00,pst,8.18
2022-09-01T10:24:00,pst,8.56
2022-09-01T10:25:00,pst,8.18
2022-09-01T10:26:00,pst,8.16
2022-09-01T10:27:00,pst,8.49
2022-09-01T10:28:00,pst,8.16
2022-09-01T10:29:00,pst,8.13
2022-09-01T10:30:00,pst,8.19
2022-09-01T10:31:00,pst,8.54
2022-09-01T10:32:00,pst,12.60
2022-09-01T10:33:00,pst,8.46
2022-09-01T10:34:00,pst,8.81
2022-09-01T10:35:00,pst,8.45
2022-09-01T10:36:00,pst,16.84
2022-09-01T10:37:00,pst,16.72
2022-09-01T10:38:00,pst,17.02
2022-09-01T10:39:00,pst,16.65
2022-09-01T10:40:00,pst,16.61
2022-09-01T10:41:00,pst,16.88
2022-09-01T10:42:00,pst,16.47
2022-09-01T10:43:00,pst,16.70
2022-09-01T10:44:00,pst,16.67
2022-09-01T10:45:00,pst,16.95
2022-09-01T10:46:00,pst,16.45
2022-09-01T10:47:00,pst,16.52
2022-09-01T10:48:00,pst,16.54
2022-09-01T10:49:00,pst,16.77
2022-09-01T10:50:00,pst,16.45
2022-09-01T10:51:00,pst,8.68
2022-09-01T10:52:00,pst,8.92
2022-09-01T10:53:00,pst,8.87
2022-09-01T10:54:00,pst,8.28
2022-09-01T10:55:00,pst,8.24
2022-09-01T10:56:00,pst,8.25
2022-09-01T10:57:00,pst,8.48
2022-09-01T10:58:00,pst,8.17
2022-09-01T10:59:00,pst,8.18
2022-09-01T11:00:00,pst,8.23
2022-09-01T11:01:00,pst,8.69
2022-09-01T11:02:00,pst,8.53
2022-09-01T11:03:00,pst,8.38
2022-09-01T11:04:00,pst,8.55
2022-09-01T11:05:00,pst,8.38
2022-09-01T11:06:00,pst,8.38
2022-09-01T11:07:00,pst,8.38
2022-09-01T11:08:00,pst,7.79
2022-09-01T11:09:00,pst,7.80
2022-09-01T11:10:00,pst,8.08
2022-09-01T11:11:00,pst,7.78
2022-09-01T11:12:00,pst,7.77
2022-09-01T11:13:00,pst,7.78
2022-09-01T11:14:00,pst,7.76
2022-09-01T11:15:00,pst,7.78
2022-09-01T11:16:00,pst,7.63
2022-09-01T11:17:00,pst,7.65
2022-09-01T11:18:00,pst,7.57
2022-09-01T11:19:00,pst,7.51
2022-09-01T11:20:00,pst,7.47
2022-09-01T11:21:00,pst,7.76
2022-09-01T11:22:00,pst,7.84
2022-09-01T11:23:00,pst,7.54
2022-09-01T11:24:00,pst,7.53
2022-09-01T11:25:00,pst,7.57
2022-09-01T11:26:00,pst,7.55
2022-09-01T11:27:00,pst,7.84
2022-09-01T11:28:00,pst,7.53
2022-09-01T11:29:00,pst,7.53
2022-09-01T11:30:00,pst,7.53
2022-09-01T11:31:00,pst,7.53
2022-09-01T11:32:00,pst,7.88
2022-09-01T11:33:00,pst,7.50
2022-09-01T11:34:00,pst,7.50
2022-09-01T11:35:00,pst,7.50
2022-09-01T11:36:00,pst,7.82
2022-09-01T11:37:00,pst,7.69
2022-09-01T11:38:00,pst,7.67
2022-09-01T11:39:00,pst,7.97
2022-09-01T11:40:00,pst,7.65
2022-09-01T11:41:00,pst,7.66
2022-09-01T11:42:00,pst,7.96
2022-09-01T11:43:00,pst,7.73
2022-09-01T11:44:00,pst,7.60
2022-09-01T11:45:00,pst,8.49
2022-09-01T11:46:00,pst,9.07
2022-09-01T11:47:00,pst,8.83
2022-09-01T11:48:00,pst,9.14
2022-09-01T11:49:00,pst,9.15
2022-09-01T11:50:00,pst,8.82
2022-09-01T11:51:00,pst,8.99
2022-09-01T11:52:00,pst,8.99
2022-09-01T11:53:00,pst,8.68
2022-09-01T11:54:00,pst,7.96
2022-09-01T11:55:00,pst,8.74
2022-09-01T11:56:00,pst,8.07
2022-09-01T11:57:00,pst,7.72
2022-09-01T11:58:00,pst,8.12
2022-09-01T11:59:00,pst,7.81
2022-09-01T12:00:00,pst,7.73
2022-09-01T12:01:00,pst,8.04
2022-09-01T12:02:00,pst,7.56
2022-09-01T12:03:00,pst,7.54
2022-09-01T12:04:00,pst,7.87
2022-09-01T12:05:00,pst,7.55
2022-09-01T12:06:00,pst,7.55
2022-09-01T12:07:00,pst,7.41
2022-09-01T12:08:00,pst,7.73
2022-09-01T12:09:00,pst,7.48
2022-09-01T12:10:00,pst,7.63
2022-09-01T12:11:00,pst,7.62
2022-09-01T12:12:00,pst,8.00
2022-09-01T12:13:00,pst,7.71
2022-09-01T12:14:00,pst,7.62
2022-09-01T12:15:00,pst,7.93
2022-09-01T12:16:00,pst,7.63
2022-09-01T12:17:00,pst,7.68
2022-09-01T12:18:00,pst,7.96
2022-09-01T12:19:00,pst,7.96
2022-09-01T12:20:00,pst,7.64
2022-09-01T12:21:00,pst,7.65
2022-09-01T12:22:00,pst,7.95
2022-09-01T12:23:00,pst,7.64
2022-09-01T12:24:00,pst,6.36
2022-09-01T12:25:00,pst,15.48
2022-09-01T12:26:00,pst,15.41
2022-09-01T12:27:00,pst,14.96
2022-09-01T12:28:00,pst,15.91
2022-09-01T12:29:00,pst,6.65
2022-09-01T12:30:00,pst,6.35
2022-09-01T12:31:00,pst,6.33
2022-09-01T12:32:00,pst,6.70
2022-09-01T12:33:00,pst,6.38
2022-09-01T12:34:00,pst,6.38
2022-09-01T12:35:00,pst,6.39
2022-09-01T12:36:00,pst,6.64
2022-09-01T12:37:00,pst,6.33
2022-09-01T12:38:00,pst,6.34
2022-09-01T12:39:00,pst,6.33
2022-09-01T12:40:00,pst,6.70
2022-09-01T12:41:00,pst,6.40
2022-09-01T12:42:00,pst,6.30
2022-09-01T12:43:00,pst,6.85
2022-09-01T12:44:00,pst,19.57
2022-09-01T12:45:00,pst,6.60
2022-09-01T12:46:00,pst,7.01
2022-09-01T12:47:00,pst,6.72
2022-09-01T12:48:00,pst,6.86
2022-09-01T12:49:00,pst,7.11
2022-09-01T12:50:00,pst,7.24
2022-09-01T12:51:00,pst,6.90
2022-09-01T12:52:00,pst,6.90
2022-09-01T12:53:00,pst,7.21
2022-09-01T12:54:00,pst,7.02
2022-09-01T12:55:00,pst,7.15
2022-09-01T12:56:00,pst,7.37
2022-09-01T12:57:00,pst,6.92
2022-09-01T12:58:00,pst,6.91
2022-09-01T12:59:00,pst,7.13
2022-09-01T13:00:00,pst,7.06
2022-09-01T13:01:00,pst,6.75
2022-09-01T13:02:00,pst,6.70
2022-09-01T13:03:00,pst,7.05
2022-09-01T13:04:00,pst,6.64
2022-09-01T13:05:00,pst,6.65
2022-09-01T13:06:00,pst,7.04
2022-09-01T13:07:00,pst,7.03
2022-09-01T13:08:00,pst,6.77
2022-09-01T13:09:00,pst,6.68
2022-09-01T13:10:00,pst,6.99
2022-09-01T13:11:00,pst,6.67
2022-09-01T13:12:00,pst,6.66
2022-09-01T13:13:00,pst,6.99
2022-09-01T13:14:00,pst,6.62
2022-09-01T13:15:00,pst,6.61
2022-09-01T13:16:00,pst,7.10
2022-09-01T13:17:00,pst,7.08
2022-09-01T13:18:00,pst,6.73
2022-09-01T13:19:00,pst,6.76
2022-09-01T13:20:00,pst,7.11
2022-09-01T13:21:00,pst,6.88
2022-09-01T13:22:00,pst,6.91
2022-09-01T13:23:00,pst,7.14
2022-09-01T13:24:00,pst,6.81
2022-09-01T13:25:00,pst,6.81
2022-09-01T13:26:00,pst,7.08
2022-09-01T13:27:00,pst,7.07
2022-09-01T13:28:00,pst,6.75
2022-09-01T13:29:00,pst,6.65
2022-09-01T13:30:00,pst,6.96
2022-09-01T13:31:00,pst,6.60